Torna al catalogo

FENGYUN 1C DEB

AttivoSSO
NORAD 32095·DEBRIS·🇨🇳 China

Lanciato May 10, 1999 da Taiyuan Satellite Launch Center

Loading…

Prossimi Passaggi (prossime 24 ore)

TLE

AggiornatoSource: Space-Track

Epoca: Sep 13, 2026, 06:56 UTC

1 32095U 99025CQM 26256.28957735  .00000339  00000-0  18638-3 0  9995
2 32095  98.6319 268.6604 0078393  25.1547 335.3414 14.16322161987030

Traccia FENGYUN 1C DEB in tempo reale con AllMySat

Download on the App Store